sat.trackr.live / text

‹ back to catalog

STARLINK-34920

NORAD 65447 · 2025-194P

PAYLOAD ACTIVE UNKNOWN

§ Identity

Operator
Country
US
Launch date
2025-09-03
Launch site
AFWTR
Launch vehicle
Mass (kg)
RCS (m²)

Purposes: comms

External: N2YO · Heavens-Above · Gunter

§ Orbital elements

Epoch: 2026-09-20T12:59:50.120448Z

Period
93.91 min
Inclination
97.2835°
Eccentricity
0.0002948
Mean motion
15.33453577 rev/d
Perigee alt
463.5 km
Apogee alt
467.5 km
Semi-major
6,843.7 km
B*
5.5614e-4
RAAN
113.1792°
Arg perigee
92.7896°
Mean anomaly
267.3685°
Rev number
5,907

§ Raw data

STARLINK-349201 65447U 25194P   26263.54155232  .00017929  00000+0  55614-3 0  99942 65447  97.2835 113.1792 0002948  92.7896 267.3685 15.33453577 59071

JSON: /api/v1/satellites/65447 · /tle

For live sub-satellite position, see the globe view (requires WebGL).

§ Visibility from observer

Set your observer location to see the next 7 days of passes ≥ 10°. The values pass through the URL so the page stays shareable.

No JS? Fill the form by hand. The geolocation button needs JavaScript.